This demonstration page uses our WeatherBlox Daily Observations layout. Learn more.

Hourly Observations for January 24, 2019

Temp ( °F °C ) Dew Point ( °F °C ) Humidity (%) Winds ( mph kmh ) Pressure ( in mb ) Visibility ( mi km ) Precip ( " mm )
12:15 am 00:15 Cloudy with Rain 43 6 43 6 100 100 SE 5 7 29.85 1011 4 6.437376 0 0
12:35 am 00:35 Cloudy with Drizzle 43 6 43 6 100 100 SSW 5 7 29.85 1011 2.5 4.02336 0.01 0.254
12:55 am 00:55 Cloudy with Drizzle 43 6 43 6 100 100 S 3 6 29.83 1010 2.5 4.02336 0.03 0.762
1:15 am 01:15 Cloudy with Drizzle 41 5 41 5 100 100 Calm 29.83 1010 2 3.218688 0 0
1:35 am 01:35 Cloudy with Rain 41 5 41 5 100 100 WNW 3 6 29.83 1010 0.75 1.207008 0.03 0.762
1:55 am 01:55 Cloudy with Light Rain 41 5 41 5 100 100 Calm 29.8 1009 1.25 2.01168 0.05 1.27
2:15 am 02:15 Cloudy with Rain 41 5 41 5 100 100 Calm 29.8 1009 1 1.609344 0.01 0.254
2:35 am 02:35 Cloudy with Light Rain 41 5 41 5 100 100 E 8 13 29.77 1008 1 1.609344 0.02 0.508
2:55 am 02:55 Cloudy with Rain 41 5 41 5 100 100 SE 6 9 29.74 1007 0.75 1.207008 0.03 0.762
3:15 am 03:15 Cloudy with Rain 41 5 41 5 100 100 SE 6 9 29.74 1007 1.25 2.01168 0.01 0.254
3:35 am 03:35 Cloudy with Drizzle 41 5 41 5 100 100 SE 7 11 29.71 1006 0.75 1.207008 0.01 0.254
3:55 am 03:55 Cloudy with Light Drizzle 43 6 43 6 100 100 SSE 9 15 29.68 1005 2 3.218688 0.02 0.508
4:15 am 04:15 Cloudy with Light Drizzle 43 6 43 6 100 100 S 7 11 29.62 1003 2.5 4.02336 0 0
4:35 am 04:35 Cloudy with Rain 45 7 45 7 100 100 S 8 13 29.62 1003 1.25 2.01168 0 0
4:55 am 04:55 Cloudy with Drizzle 45 7 45 7 100 100 S 6 9 29.59 1002 0.75 1.207008 0.01 0.254
5:15 am 05:15 Cloudy with Light Rain 46 8 46 8 100 100 S 7 11 29.56 1001 1 1.609344 0 0
5:35 am 05:35 Cloudy with Light Rain 46 8 46 8 100 100 S 5 7 29.53 1000 1.25 2.01168 0.01 0.254
5:55 am 05:55 Cloudy with Rain 50 10 50 10 100 100 S 12 19 29.53 1000 4 6.437376 0.01 0.254
6:15 am 06:15 Cloudy 54 12 54 12 100 100 S 14 22 29.5 999 10 16.09344 0 0
6:35 am 06:35 Cloudy with Light Rain 54 12 54 12 100 100 S 12 19 29.5 999 4 6.437376 0 0
6:55 am 06:55 Cloudy with Drizzle 54 12 54 12 100 100 S 14 22 29.5 999 4 6.437376 0.02 0.508
7:15 am 07:15 Cloudy with Drizzle 54 12 54 12 100 100 SSW 12 19 29.5 999 5 8.04672 0.02 0.508
7:35 am 07:35 Cloudy with Light Rain 54 12 54 12 100 100 SSW 10 17 29.47 998 5 8.04672 0.02 0.508
7:55 am 07:55 Cloudy with Light Rain 54 12 54 12 100 100 SSW 8 13 29.47 998 7 11.265408 0.02 0.508
8:15 am 08:15 Cloudy with Light Drizzle 54 12 54 12 100 100 S 8 13 29.47 998 7 11.265408 0 0
8:35 am 08:35 Cloudy with Light Drizzle 54 12 54 12 100 100 S 10 17 29.47 998 10 16.09344 0 0
8:55 am 08:55 Cloudy with Light Drizzle 55 13 55 13 100 100 SSW 9 15 29.44 997 7 11.265408 0 0
9:15 am 09:15 Cloudy with Heavy Rain 52 11 52 11 100 100 WNW 15 24 29.47 998 2.5 4.02336 0.11 2.794
9:35 am 09:35 Cloudy with Rain 50 10 50 10 100 100 NNW 9 15 29.47 998 5 8.04672 0.18 4.572
9:55 am 09:55 Cloudy with Rain 50 10 50 10 100 100 N 9 15 29.44 997 7 11.265408 0.23 5.842
10:15 am 10:15 Cloudy with Rain 50 10 50 10 100 100 NNW 7 11 29.44 997 7 11.265408 0.02 0.508
10:35 am 10:35 Cloudy with Rain 50 10 50 10 100 100 N 6 9 29.44 997 7 11.265408 0.05 1.27
10:55 am 10:55 Cloudy with Rain 50 10 50 10 100 100 NNW 8 13 29.47 998 5 8.04672 0.1 2.54
11:15 am 11:15 Cloudy with Rain 50 10 50 10 100 100 N 6 9 29.44 997 5 8.04672 0.04 1.016
11:35 am 11:35 Cloudy with Rain 48 9 48 9 100 100 WNW 26 43 29.47 998 7 11.265408 0.07 1.778
11:55 am 11:55 Cloudy with Rain 46 8 46 8 100 100 NW 22 35 29.47 998 7 11.265408 0.1 2.54
12:15 pm 12:15 Cloudy with Light Rain 45 7 45 7 100 100 NW 21 33 29.47 998 7 11.265408 0.01 0.254
12:35 pm 12:35 Cloudy with Light Rain 45 7 45 7 100 100 NW 20 31 29.47 998 10 16.09344 0.02 0.508
12:55 pm 12:55 Cloudy with Rain 43 6 43 6 100 100 NW 21 33 29.5 999 10 16.09344 0.03 0.762
1:15 pm 13:15 Cloudy with Light Rain 43 6 43 6 100 100 NW 20 31 29.5 999 10 16.09344 0.01 0.254
1:35 pm 13:35 Cloudy with Light Rain 43 6 41 5 93 93 NW 23 37 29.53 1000 10 16.09344 0.01 0.254
1:55 pm 13:55 Cloudy with Light Rain 41 5 37 3 87 87 NW 20 31 29.59 1002 10 16.09344 0.01 0.254
2:15 pm 14:15 Cloudy 43 6 39 4 87 87 NNW 20 31 29.56 1001 10 16.09344 0.01 0.254
2:35 pm 14:35 Cloudy 41 5 36 2 81 81 NW 24 39 29.59 1002 10 16.09344 0.01 0.254
2:55 pm 14:55 Cloudy 43 6 34 1 71 71 NW 32 52 29.59 1002 10 16.09344 0.01 0.254
3:15 pm 15:15 Cloudy 41 5 32 0 70 70 NW 24 39 29.65 1004 10 16.09344 0 0
3:35 pm 15:35 Cloudy 39 4 32 0 75 75 NW 24 39 29.68 1005 10 16.09344 0 0
3:55 pm 15:55 Cloudy 39 4 32 0 75 75 NW 28 44 29.71 1006 10 16.09344 0 0
4:15 pm 16:15 Cloudy 37 3 30 -1 75 75 NW 26 43 29.71 1006 10 16.09344 0 0
4:35 pm 16:35 Cloudy 37 3 30 -1 75 75 NW 12 19 29.74 1007 10 16.09344 0 0
4:55 pm 16:55 Cloudy 37 3 30 -1 75 75 NW 15 24 29.77 1008 10 16.09344 0 0
5:15 pm 17:15 Cloudy 36 2 28 -2 75 75 WNW 18 30 29.77 1008 10 16.09344 0 0
5:35 pm 17:35 Cloudy 36 2 28 -2 75 75 NW 15 24 29.77 1008 10 16.09344 0 0
5:55 pm 17:55 Cloudy 36 2 28 -2 75 75 NW 20 31 29.83 1010 10 16.09344 0 0
6:15 pm 18:15 Cloudy 36 2 28 -2 75 75 NW 16 26 29.83 1010 10 16.09344 0 0
6:35 pm 18:35 Cloudy 36 2 28 -2 75 75 WNW 14 22 29.83 1010 10 16.09344 0 0
6:55 pm 18:55 Mostly Cloudy 36 2 28 -2 75 75 NW 16 26 29.83 1010 10 16.09344 0 0
7:15 pm 19:15 Partly Cloudy 34 1 28 -2 81 81 NW 21 33 29.85 1011 10 16.09344 0 0
7:35 pm 19:35 Mostly Cloudy 36 2 28 -2 75 75 NW 13 20 29.85 1011 10 16.09344 0 0
7:55 pm 19:55 Cloudy 36 2 28 -2 75 75 WNW 17 28 29.85 1011 10 16.09344 0 0
8:15 pm 20:15 Cloudy 36 2 28 -2 75 75 WNW 15 24 29.88 1012 10 16.09344 0 0
8:35 pm 20:35 Cloudy 36 2 28 -2 75 75 WNW 17 28 29.88 1012 10 16.09344 0 0
8:55 pm 20:55 Mostly Cloudy 36 2 28 -2 75 75 WNW 21 33 29.88 1012 10 16.09344 0 0
9:15 pm 21:15 Partly Cloudy 36 2 27 -3 70 70 NW 22 35 29.91 1013 10 16.09344 0 0
9:35 pm 21:35 Mostly Cloudy 36 2 27 -3 70 70 NW 21 33 29.91 1013 10 16.09344 0 0
9:55 pm 21:55 Mostly Cloudy 36 2 27 -3 70 70 NW 16 26 29.91 1013 10 16.09344 0 0
10:15 pm 22:15 Cloudy 34 1 28 -2 81 81 NW 12 19 29.91 1013 10 16.09344 0 0
10:35 pm 22:35 Partly Cloudy 34 1 28 -2 81 81 WNW 13 20 29.91 1013 10 16.09344 0 0
10:55 pm 22:55 Clear 34 1 27 -3 75 75 WNW 15 24 29.91 1013 10 16.09344 0 0
11:15 pm 23:15 Clear 34 1 27 -3 75 75 NW 12 19 29.94 1014 10 16.09344 0 0
11:35 pm 23:35 Partly Cloudy 34 1 27 -3 75 75 WNW 6 9 29.94 1014 10 16.09344 0 0
11:55 pm 23:55 Partly Cloudy 34 1 27 -3 75 75 NW 13 20 29.97 1015 10 16.09344 0 0

Powered by AerisWeather